User: anonymous   Login
Location: Unspecified
(0.0000°N, 0.0000°E)
Time: 08:57:09
(UTC+00:00)
Language:

TBA - TO BE ASSIGNED - Orbit

View from above orbital plane
View from above orbital plane
View from above satellite
View from above satellite

Ground track
Ground track

The orbit is defined by the following mean orbital elements,

1 67963U          26145.47521127 +.00000000 +00000-0 +39669-3 0 00007
2 67963  97.2843 155.4489 0000986  96.2532 263.8823 15.33454063    08
Epoch (UTC): 25 May 2026 11:24:18
Eccentricity: 0.0000986
inclination: 97.2843°
perigee height: 465 km
apogee height: 466 km
right ascension of ascending node: 155.4489°
argument of perigee: 96.2532°
revolutions per day: 15.33454063
mean anomaly at epoch: 263.8823°

The dashed part of the orbit path shows where the satellite is in the earth's shadow,  

DLR